CSN6371 ZUGY-ZGSZ

Flight info

Callsign CSN6371
Flight time N/A
Altitude 35100
Route DAGVO3C DAGVO W682 LAGEX G586 SJG B330 POU W7 SAREX SAREX4
Aircraft A21N/M-SDE3FGHIRWY/LB1

Departure

Time 2026-05-04 15:29
Airport Guiyang Longdongbao International Airport (ZUGY)

Arrival

Time N/A
Airport Shenzhen Bao'an International Airport (ZGSZ)
Time Latitude Longitude Altitude Speed Heading
2026-05-04 15:12 26.55689 106.80006 3745 ft 0 kts 10°
2026-05-04 15:16 26.55671 106.80003 3745 ft 2 kts 10°
2026-05-04 15:16 26.55655 106.80000 3745 ft 2 kts 10°
2026-05-04 15:16 26.55639 106.79983 3745 ft 1 kts 89°
2026-05-04 15:17 26.55640 106.79973 3745 ft 1 kts 102°
2026-05-04 15:17 26.55641 106.79971 3745 ft 0 kts 101°
2026-05-04 15:20 26.55641 106.79972 3745 ft 1 kts 101°
2026-05-04 15:21 26.55635 106.80001 3745 ft 6 kts 100°
2026-05-04 15:21 26.55626 106.80060 3745 ft 9 kts 99°
2026-05-04 15:21 26.55619 106.80108 3745 ft 0 kts 100°
2026-05-04 15:24 26.55616 106.80123 3745 ft 4 kts 101°
2026-05-04 15:25 26.55611 106.80164 3745 ft 6 kts 88°
2026-05-04 15:25 26.55638 106.80200 3745 ft 7 kts 15°
2026-05-04 15:25 26.55687 106.80214 3745 ft 8 kts 24°
2026-05-04 15:26 26.55665 106.80279 3745 ft 7 kts 175°
2026-05-04 15:26 26.55616 106.80276 3745 ft 8 kts 190°
2026-05-04 15:26 26.55524 106.80287 3745 ft 6 kts 117°
2026-05-04 15:27 26.55517 106.80338 3745 ft 7 kts 97°
2026-05-04 15:27 26.55464 106.80435 3745 ft 9 kts 173°
2026-05-04 15:28 26.55250 106.80396 3745 ft 60 kts 190°
2026-05-04 15:28 26.54687 106.80287 3745 ft 122 kts 189°
2026-05-04 15:28 26.52673 106.79876 4315 ft 172 kts 191°
2026-05-04 15:29 26.51561 106.79656 5025 ft 171 kts 189°
2026-05-04 15:30 26.46517 106.78999 7016 ft 226 kts 171°
2026-05-04 15:30 26.44118 106.83418 8391 ft 285 kts 97°
2026-05-04 15:31 26.43629 106.87524 9455 ft 295 kts 98°
2026-05-04 15:31 26.43326 106.89608 9992 ft 300 kts 99°
2026-05-04 15:32 26.42242 106.96165 10972 ft 335 kts 99°
2026-05-04 15:32 26.41399 107.01013 11466 ft 362 kts 99°
2026-05-04 15:33 26.40506 107.06070 12406 ft 371 kts 99°
2026-05-04 15:34 26.39168 107.13856 13761 ft 383 kts 96°
2026-05-04 15:34 26.38954 107.15845 14097 ft 385 kts 93°
2026-05-04 15:34 26.38854 107.21213 14978 ft 390 kts 86°
2026-05-04 15:35 26.38971 107.26800 15840 ft 397 kts 86°
2026-05-04 15:35 26.39028 107.29606 16254 ft 400 kts 86°
2026-05-04 15:35 26.39080 107.32409 16652 ft 404 kts 87°
2026-05-04 15:36 26.39175 107.38108 17440 ft 411 kts 87°
2026-05-04 15:36 26.39220 107.40985 17823 ft 414 kts 87°
2026-05-04 15:36 26.39263 107.43936 18198 ft 418 kts 87°
2026-05-04 15:37 26.39305 107.46828 18529 ft 422 kts 87°
2026-05-04 15:37 26.39348 107.49839 18885 ft 425 kts 88°
2026-05-04 15:37 26.39391 107.52831 19246 ft 428 kts 88°
2026-05-04 15:37 26.39431 107.55835 19579 ft 431 kts 87°
2026-05-04 15:38 26.39473 107.58875 19894 ft 435 kts 88°
2026-05-04 15:38 26.39515 107.61959 20226 ft 438 kts 88°
2026-05-04 15:38 26.39556 107.65048 20541 ft 442 kts 88°
2026-05-04 15:38 26.39595 107.68124 20856 ft 444 kts 88°
2026-05-04 15:39 26.39635 107.71233 21161 ft 447 kts 88°
2026-05-04 15:39 26.39674 107.74406 21451 ft 451 kts 88°
2026-05-04 15:39 26.39752 107.80714 22031 ft 456 kts 88°
2026-05-04 15:40 26.39791 107.83957 22307 ft 459 kts 88°
2026-05-04 15:40 26.39829 107.87179 22598 ft 461 kts 88°
2026-05-04 15:40 26.39865 107.90396 22880 ft 464 kts 88°
2026-05-04 15:40 26.39901 107.93640 23168 ft 466 kts 88°
2026-05-04 15:41 26.39937 107.96892 23471 ft 468 kts 88°
2026-05-04 15:41 26.39972 108.00166 23755 ft 470 kts 88°
2026-05-04 15:41 26.40007 108.03505 24026 ft 473 kts 88°
2026-05-04 15:41 26.40040 108.06802 24302 ft 476 kts 88°
2026-05-04 15:42 26.40066 108.09274 24524 ft 477 kts 88°
2026-05-04 15:42 26.40099 108.12726 24821 ft 479 kts 88°
2026-05-04 15:42 26.40131 108.16021 25087 ft 481 kts 88°
2026-05-04 15:42 26.40162 108.19401 25347 ft 484 kts 88°
2026-05-04 15:43 26.40194 108.22802 25620 ft 486 kts 88°
2026-05-04 15:43 26.40224 108.26189 25904 ft 488 kts 88°
2026-05-04 15:43 26.40250 108.29594 26175 ft 490 kts 88°
2026-05-04 15:43 26.40279 108.33060 26412 ft 492 kts 88°
2026-05-04 15:44 26.40308 108.36505 26659 ft 494 kts 87°
2026-05-04 15:44 26.40410 108.39970 26910 ft 496 kts 85°
2026-05-04 15:44 26.40555 108.43456 27138 ft 498 kts 85°
2026-05-04 15:44 26.40712 108.46925 27370 ft 500 kts 85°
2026-05-04 15:45 26.40871 108.50419 27603 ft 502 kts 85°
2026-05-04 15:45 26.41027 108.53935 27820 ft 505 kts 85°
2026-05-04 15:45 26.41183 108.57500 28036 ft 507 kts 85°
2026-05-04 15:45 26.41334 108.61028 28287 ft 508 kts 85°
2026-05-04 15:46 26.41483 108.64593 28522 ft 510 kts 85°
2026-05-04 15:46 26.41628 108.68111 28744 ft 511 kts 85°
2026-05-04 15:46 26.41777 108.71686 28935 ft 514 kts 85°
2026-05-04 15:46 26.41920 108.75217 29117 ft 516 kts 85°
2026-05-04 15:47 26.42066 108.78818 29369 ft 515 kts 85°
2026-05-04 15:47 26.42209 108.82371 29633 ft 515 kts 85°
2026-05-04 15:47 26.42350 108.85917 29831 ft 516 kts 85°
2026-05-04 15:47 26.42493 108.89516 29988 ft 518 kts 85°
2026-05-04 15:48 26.42633 108.93095 30189 ft 519 kts 86°
2026-05-04 15:48 26.42529 108.96736 30375 ft 522 kts 96°
2026-05-04 15:48 26.40525 109.03590 30784 ft 519 kts 122°
2026-05-04 15:49 26.38705 109.06511 30990 ft 513 kts 134°
2026-05-04 15:49 26.36379 109.09043 31212 ft 505 kts 146°
2026-05-04 15:49 26.33763 109.11344 31453 ft 503 kts 148°
2026-05-04 15:49 26.31129 109.13573 31659 ft 504 kts 148°
2026-05-04 15:50 26.28620 109.15707 31866 ft 504 kts 148°
2026-05-04 15:50 26.26142 109.17844 32076 ft 505 kts 148°
2026-05-04 15:50 26.23674 109.20007 32276 ft 505 kts 147°
2026-05-04 15:50 26.21237 109.22166 32466 ft 506 kts 147°
2026-05-04 15:51 26.18750 109.24384 32729 ft 505 kts 147°
2026-05-04 15:51 26.16306 109.26566 32984 ft 505 kts 147°
2026-05-04 15:51 26.13846 109.28765 33226 ft 505 kts 147°
2026-05-04 15:51 26.11370 109.30977 33503 ft 505 kts 147°
2026-05-04 15:52 26.08936 109.33153 33757 ft 505 kts 147°
2026-05-04 15:52 26.06476 109.35349 33972 ft 506 kts 147°
2026-05-04 15:52 26.04026 109.37537 34191 ft 506 kts 147°
2026-05-04 15:52 26.01560 109.39737 34414 ft 507 kts 147°
2026-05-04 15:53 25.99084 109.41943 34622 ft 508 kts 147°
2026-05-04 15:53 25.96608 109.44149 34812 ft 509 kts 147°
2026-05-04 15:53 25.94139 109.46348 35016 ft 510 kts 147°
2026-05-04 15:53 25.91631 109.48580 35200 ft 511 kts 147°
2026-05-04 15:54 25.86649 109.53011 35203 ft 512 kts 146°
2026-05-04 15:54 25.81609 109.57488 35203 ft 520 kts 146°
2026-05-04 15:55 25.76551 109.62152 35203 ft 530 kts 142°
2026-05-04 15:55 25.71692 109.67245 35203 ft 532 kts 141°
2026-05-04 15:56 25.66863 109.72395 35214 ft 532 kts 141°
2026-05-04 15:56 25.62839 109.76669 35219 ft 532 kts 141°
2026-05-04 15:57 25.57224 109.82609 35221 ft 531 kts 141°
2026-05-04 15:57 25.52407 109.87688 35226 ft 532 kts 141°
2026-05-04 15:58 25.47566 109.92785 35225 ft 531 kts 141°
2026-05-04 15:58 25.42760 109.97842 35222 ft 531 kts 141°
2026-05-04 15:59 25.37931 110.02913 35214 ft 530 kts 141°
2026-05-04 15:59 25.33133 110.07949 35200 ft 530 kts 141°
2026-05-04 16:00 25.28314 110.12997 35200 ft 530 kts 141°
2026-05-04 16:00 25.23492 110.18045 35195 ft 530 kts 141°
2026-05-04 16:01 25.18672 110.23097 35188 ft 529 kts 141°
2026-05-04 16:01 25.13920 110.28128 35188 ft 529 kts 141°
2026-05-04 16:02 25.09144 110.33192 35193 ft 529 kts 141°
2026-05-04 16:03 25.01985 110.40756 35196 ft 528 kts 141°
2026-05-04 16:03 24.97203 110.45806 35200 ft 528 kts 141°
2026-05-04 16:04 24.92426 110.50858 35207 ft 527 kts 141°
2026-05-04 16:04 24.85305 110.58379 35206 ft 527 kts 140°
2026-05-04 16:05 24.80502 110.63442 35205 ft 527 kts 140°
2026-05-04 16:06 24.73380 110.70942 35199 ft 526 kts 141°
2026-05-04 16:07 24.63933 110.80914 35203 ft 526 kts 140°
2026-05-04 16:08 24.54581 110.91019 35208 ft 526 kts 140°
2026-05-04 16:09 24.42944 111.03526 35204 ft 526 kts 140°
2026-05-04 16:10 24.33587 111.13553 35200 ft 525 kts 140°
2026-05-04 16:11 24.24104 111.23447 35202 ft 522 kts 145°
2026-05-04 16:12 24.07838 111.34457 35213 ft 507 kts 160°
2026-05-04 16:13 23.96572 111.40677 35204 ft 507 kts 159°
2026-05-04 16:14 23.85299 111.46953 35195 ft 507 kts 159°
2026-05-04 16:16 23.71279 111.54751 35183 ft 505 kts 159°
2026-05-04 16:17 23.57239 111.62538 35172 ft 505 kts 159°
2026-05-04 16:18 23.46052 111.68729 35170 ft 504 kts 159°
2026-05-04 16:19 23.32097 111.76440 35177 ft 502 kts 159°
2026-05-04 16:20 23.24449 111.82092 35006 ft 504 kts 140°
2026-05-04 16:20 23.20660 111.87476 34038 ft 507 kts 123°
2026-05-04 16:21 23.17592 111.97106 32608 ft 512 kts 103°
2026-05-04 16:22 23.16325 112.03828 31729 ft 514 kts 103°
2026-05-04 16:22 23.14336 112.13830 30442 ft 515 kts 104°
2026-05-04 16:23 23.12188 112.24101 29158 ft 511 kts 105°
2026-05-04 16:24 23.09362 112.37495 27506 ft 497 kts 105°
2026-05-04 16:25 23.07980 112.44035 26674 ft 490 kts 105°
2026-05-04 16:26 23.06397 112.56982 25045 ft 478 kts 95°
2026-05-04 16:26 23.05798 112.66519 23874 ft 468 kts 96°
2026-05-04 16:27 23.05385 112.72785 23112 ft 461 kts 96°
2026-05-04 16:28 23.04760 112.81960 21976 ft 451 kts 96°
2026-05-04 16:28 23.04144 112.90907 20851 ft 441 kts 96°
2026-05-04 16:29 23.03335 113.02517 19350 ft 430 kts 95°
2026-05-04 16:30 23.02740 113.10954 18235 ft 422 kts 95°
2026-05-04 16:31 23.02321 113.16524 17439 ft 417 kts 98°
2026-05-04 16:31 22.99831 113.24201 16266 ft 403 kts 120°
2026-05-04 16:32 22.96360 113.31245 15127 ft 394 kts 121°
2026-05-04 16:33 22.94122 113.35873 14375 ft 389 kts 121°
2026-05-04 16:33 22.91946 113.40420 13634 ft 385 kts 120°
2026-05-04 16:34 22.90141 113.44197 13005 ft 381 kts 120°
2026-05-04 16:34 22.88407 113.46896 12481 ft 368 kts 142°
2026-05-04 16:35 22.83104 113.48430 11472 ft 326 kts 188°
2026-05-04 16:35 22.76565 113.48064 10107 ft 304 kts 186°
2026-05-04 16:36 22.74647 113.48080 9682 ft 299 kts 179°
2026-05-04 16:36 22.71119 113.48940 8898 ft 295 kts 165°
2026-05-04 16:37 22.67728 113.50298 8130 ft 294 kts 162°
2026-05-04 16:37 22.66060 113.50980 7783 ft 293 kts 162°
2026-05-04 16:37 22.62765 113.52319 7351 ft 280 kts 162°
2026-05-04 16:38 22.59565 113.53604 6914 ft 268 kts 162°
2026-05-04 16:39 22.55015 113.55422 6225 ft 255 kts 162°
2026-05-04 16:39 22.52480 113.57358 5680 ft 255 kts 122°
2026-05-04 16:40 22.51066 113.60370 5172 ft 251 kts 117°
2026-05-04 16:40 22.49673 113.63357 4650 ft 247 kts 118°
2026-05-04 16:41 22.48247 113.66267 4125 ft 241 kts 120°
2026-05-04 16:41 22.46052 113.70355 3328 ft 224 kts 120°
2026-05-04 16:42 22.44052 113.74075 2821 ft 202 kts 119°
2026-05-04 16:43 22.43241 113.76579 2673 ft 201 kts 85°
2026-05-04 16:43 22.44252 113.79048 2532 ft 199 kts 64°
2026-05-04 16:43 22.44849 113.80237 2466 ft 197 kts 65°
2026-05-04 16:44 22.47127 113.84948 2294 ft 197 kts 66°
2026-05-04 16:45 22.48279 113.87245 2254 ft 182 kts 54°
2026-05-04 16:46 22.51558 113.87585 2282 ft 180 kts 348°
2026-05-04 16:46 22.53563 113.86724 1947 ft 166 kts 339°
2026-05-04 16:47 22.55356 113.85761 1553 ft 155 kts 337°
2026-05-04 16:47 22.57055 113.84824 1207 ft 151 kts 337°
2026-05-04 16:48 22.59538 113.83466 693 ft 148 kts 337°
2026-05-04 16:48 22.60359 113.83021 519 ft 147 kts 337°
2026-05-04 16:49 22.61848 113.82210 199 ft 147 kts 335°
2026-05-04 16:49 22.63370 113.81371 22 ft 124 kts 334°